Regional Weather Roundup
Issued by NWS

Home | Current Version | Previous Version | Text Only | Print | Product List | Glossary On
Versions: 1 2 3 4 5 6 7 8 9 10 11 12 13 14 15 16 17 18 19 20 21 22 23 24 25 26 27 28 29 30 31 32 33 34 35 36 37 38 39 40 41 42 43 44 45 46 47 48 49 50
311
ASUS43 KDMX 250806
RWRIA

WEATHER ROUNDUP FOR IOWA
NATIONAL WEATHER SERVICE DES MOINES IA
300 AM CDT TUE APR 25 2017

NOTE: "FAIR" INDICATES FEW OR NO CLOUDS BELOW 12,000 FEET WITH NO
SIGNIFICANT WEATHER AND/OR OBSTRUCTIONS TO VISIBILITY.

* - THESE STATIONS ARE NOT NWS STATIONS...THUS NOT UNDER NWS
QUALITY CONTROL.  THEY ALSO DO NOT REPORT WEATHER SUCH
AS PRECIPITATION OR FOG.

IAZ001>003-012>014-020>022-031>034-043>046-250900-
   NORTHWEST IOWA

CITY           SKY/WX    TMP DP  RH WIND       PRES   REMARKS
CARROLL *      PTCLDY    57  45  62 W9        29.49F
CHEROKEE *     CLEAR     48  44  86 N5        29.53R
DENISON *      CLEAR     50  45  81 N8        29.52F
LE MARS *      CLOUDY    45  41  87 N3        29.56R
ORANGE CITY *  CLEAR     45  41  87 NW10      29.54S
SHELDON *      CLOUDY    43  41  93 NW8       29.52S
SIOUX CITY     MOCLDY    46  41  82 NW8       29.55R
SPENCER        MOCLDY    50  45  83 N13       29.50F
STORM LAKE *   CLEAR     48  43  81 W6        29.51F
$$

IAZ055>058-069>071-079>083-090>094-250900-
   SOUTHWEST IOWA

CITY           SKY/WX    TMP DP  RH WIND       PRES   REMARKS
ATLANTIC *       N/A     59  43  55 S8        29.50F
AUDUBON *      PTCLDY    57  45  62 S6        29.51F
CLARINDA *     PTCLDY    57  45  62 S9        29.53F
COUNCIL BLFS * PTCLDY    54  46  76 NW7       29.51S
CRESTON *      PTCLDY    59  41  51 S14       29.54F
HARLAN  *      CLEAR     54  43  66 W3        29.53F
LAMONI         CLEAR     57  37  47 S9        29.55F
RED OAK *      CLOUDY    57  45  62 S9        29.50F
SHENANDOAH *   PTCLDY    57  45  62 CALM      29.50F
$$

IAZ047>049-059>061-072>074-084-250900-
   CENTRAL IOWA

CITY           SKY/WX    TMP DP  RH WIND       PRES   REMARKS
AMES           PTCLDY    55  39  54 SE3       29.52F
ANKENY *       CLOUDY    57  37  47 S6        29.54F
BOONE *        PTCLDY    55  37  50 SE5       29.52S
CHARITON *     CLEAR     54  39  58 SE8       29.55F
DES MOINES     MOCLDY    60  37  42 SE8       29.53F
GRINNELL*      PTCLDY    55  34  44 SE13      29.57F
KNOXVILLE *    CLEAR     55  36  47 SE6       29.54F
MARSHALLTOWN   CLOUDY    58  35  42 SE9       29.55F
NEWTON *       PTCLDY    54  36  50 SE9       29.54F
PELLA *        CLEAR     56  35  45 SE7       29.57F
PERRY *          N/A     56  38  52 S12       29.51F
$$

IAZ004>006-015-016-023>025-035-036-250900-
   NORTH CENTRAL IOWA

CITY           SKY/WX    TMP DP  RH WIND       PRES   REMARKS
ALGONA *       CLOUDY    59  39  47 S9        29.51S
CLARION *      MOCLDY    59  36  41 SE13      29.51F
ESTHERVILLE    CLOUDY    54  44  69 NW8       29.49F
FORT DODGE *   MOCLDY    63  37  39 S8        29.51F
MASON CITY     CLOUDY    56  36  47 SE9       29.53F
FOREST CITY *  CLOUDY    55  36  47 S9        29.51F
WEBSTER CITY * PTCLDY    55  37  50 SE10      29.50F
IOWA FALLS *   CLOUDY    58  37  44 SE10      29.55F
$$

IAZ007>011-017>019-026>030-037>042-050>054-066-250900-
   NORTHEAST IOWA

CITY           SKY/WX    TMP DP  RH WIND       PRES   REMARKS
CEDAR RAPIDS   CLEAR     57  35  43 S10       29.59F
CHARLES CITY * CLOUDY    61  32  33 SE9       29.56F
CLINTON *      CLOUDY    55  35  47 SE10      29.65F
DECORAH *      PTCLDY    55  34  44 SE10G18   29.58F
DUBUQUE        CLOUDY    55  32  41 SE15      29.64F
MONTICELLO *   CLOUDY    54  32  43 SE9       29.62F
OELWEIN *      CLOUDY    55  36  47 SE12      29.59F
WATERLOO       CLOUDY    60  32  34 S12       29.56F
$$

IAZ064-065-067-068-078-250900-
   EAST CENTRAL IOWA

CITY           SKY/WX    TMP DP  RH WIND       PRES   REMARKS
DAVENPORT      PTCLDY    56  31  38 SE10      29.65F
IOWA CITY      MOCLDY    55  35  47 SE7       29.61F
MT. PLEASANT * PTCLDY    56  37  48 SE9       29.62F
MUSCATINE *    PTCLDY    46  37  71 CALM      29.63F
QUAD CITIES    PTCLDY    54  33  45 SE9       29.64F
$$

IAZ062-063-075>077-085>089-095>099-250900-
   SOUTHEAST IOWA

CITY           SKY/WX    TMP DP  RH WIND       PRES   REMARKS
BURLINGTON     PTCLDY    60  39  45 S9        29.63F
FAIRFIELD *    CLOUDY    57  34  41 S10       29.59F
FORT MADISON * CLOUDY    57  37  47 S9        29.64F
KEOKUK *       PTCLDY    59  37  44 SE8       29.62F
OSKALOOSA *      N/A     52  35  52 SE10      29.58F
CENTERVILLE *    N/A     50  37  62 CALM      29.59F
OTTUMWA        PTCLDY    57  34  41 S13       29.57F
WASHINGTON *   PTCLDY    57  36  44 S13       29.61F
$$

ABBREVIATIONS USED IN REMARKS
   TC - TEMPERATURES IN CELSIUS
  WCI - WIND CHILL INDEX
   HX - HEAT INDEX
  VSB - VISIBILITY
$$





USA.gov is the U.S. government's official web portal to all federal, state and local government web resources and services.